Stanley, ND

5:45 PM CST on February 08, 2016 (GMT -0600)
Stanley

Weather History for K08D - February, 2014

Change the Weather History Date:

Wednesday, February 12, 2014

  Actual Average (KMOT) Record (KMOT)
Temperature  
Mean Temperature 12 °F 16 °F  
Max Temperature 32 °F 25 °F 59 °F (1924)
Min Temperature -9 °F 8 °F -39 °F (1936)
Degree Days  
Heating Degree Days 54 49  
Month to date heating degree days 602  
Since 1 July heating degree days 5834  
Moisture  
Dew Point 4 °F    
Average Humidity 87    
Maximum Humidity 100    
Minimum Humidity 72    
Precipitation  
Precipitation 0.18 in 0.01 in 0.32 in (1973)
Month to date precipitation 0.15  
Year to date precipitation 0.66  
Sea Level Pressure  
Sea Level Pressure 29.67 in    
Wind  
Wind Speed 9 mph (South)    
Max Wind Speed 32 mph    
Max Gust Speed 46 mph    
Visibility 9 miles    
Events Rain , Snow    
T = Trace of Precipitation, MM = Missing Value Source: NWS Daily Summary

Daily Weather History Graph

Daily Weather History Graph

Search for Another Location

Airport or City:

Trip Planner

Search our weather history database for the weather conditions in past years. The results will help you decide how hot, cold, wet, or windy it might be!

Date:

Astronomy

Feb. 12, 2014 Rise Set
Actual Time 8:01 AM CST 6:06 PM CST
Civil Twilight 7:29 AM CST 6:39 PM CST
Nautical Twilight 6:52 AM CST 7:16 PM CST
Astronomical Twilight 6:16 AM CST 7:52 PM CST
Moon 4:19 PM CST (2/12) 6:23 AM CST (2/12)
Length of Visible Light 11h 10m
Length of Day
10h 05m
Waxing Gibbous, 95% of the Moon is Illuminated
Feb 12
Waxing Gibbous
Feb 14
Full
Feb 22
Last Quarter
Mar 1
New
Mar 8
First Quarter

Hourly Weather History & Observations

Time (CST) Temp. Windchill Dew Point Humidity Pressure Visibility Wind Dir Wind Speed Gust Speed Precip Events Conditions
12:15 AM -4.0 °F - -9.4 °F 78% 30.04 in 10.0 mi Calm Calm - N/A   Clear
12:35 AM -4.0 °F -16.3 °F -9.4 °F 78% 30.04 in 10.0 mi WNW 5.8 mph - N/A   Clear
12:55 AM -4.0 °F -19.0 °F -7.6 °F 85% 30.05 in 10.0 mi West 8.1 mph - N/A   Partly Cloudy
1:15 AM -4.0 °F -19.0 °F -7.6 °F 85% 30.06 in 10.0 mi WNW 8.1 mph - N/A   Clear
1:35 AM -4.0 °F -19.0 °F -9.4 °F 78% 30.07 in 10.0 mi WNW 8.1 mph - N/A   Clear
1:55 AM -4.0 °F -20.2 °F -9.4 °F 78% 30.07 in 10.0 mi NW 9.2 mph - N/A   Clear
2:15 AM -4.0 °F -19.0 °F -9.4 °F 78% 30.06 in 10.0 mi NW 8.1 mph - N/A   Scattered Clouds
2:35 AM -4.0 °F -19.0 °F -9.4 °F 78% 30.07 in 10.0 mi NW 8.1 mph - N/A   Mostly Cloudy
2:55 AM -4.0 °F -16.3 °F -9.4 °F 78% 30.06 in 10.0 mi WNW 5.8 mph - N/A   Overcast
3:15 AM -4.0 °F -17.8 °F -9.4 °F 78% 30.07 in 10.0 mi NW 6.9 mph - N/A   Overcast
3:35 AM -5.8 °F -18.4 °F -11.2 °F 77% 30.06 in 10.0 mi West 5.8 mph - N/A   Scattered Clouds
3:55 AM -7.6 °F -20.6 °F -11.2 °F 84% 30.06 in 10.0 mi West 5.8 mph - N/A   Clear
4:15 AM -7.6 °F -16.5 °F -11.2 °F 84% 30.04 in 10.0 mi WNW 3.5 mph - N/A   Clear
4:35 AM -7.6 °F - -11.2 °F 84% 30.03 in 10.0 mi Calm Calm - N/A   Clear
4:55 AM -5.8 °F - -11.2 °F 77% 30.03 in 10.0 mi Calm Calm - N/A   Clear
5:15 AM -7.6 °F -16.5 °F -11.2 °F 84% 30.03 in 10.0 mi WNW 3.5 mph - N/A   Clear
5:35 AM -7.6 °F - -13.0 °F 77% 30.03 in 10.0 mi Calm Calm - N/A   Clear
5:55 AM -7.6 °F - -11.2 °F 84% 30.01 in 10.0 mi Calm Calm - N/A   Clear
6:15 AM -7.6 °F -16.5 °F -11.2 °F 84% 30.01 in 10.0 mi South 3.5 mph - N/A   Clear
6:35 AM -9.4 °F -20.9 °F -13.0 °F 84% 30.00 in 10.0 mi SSW 4.6 mph - N/A   Clear
6:55 AM -9.4 °F -20.9 °F -13.0 °F 84% 29.99 in 10.0 mi SW 4.6 mph - N/A   Clear
7:15 AM -9.4 °F -20.9 °F -13.0 °F 84% 29.97 in 10.0 mi SSW 4.6 mph - N/A   Clear
7:35 AM -9.4 °F -18.6 °F -13.0 °F 84% 29.95 in 10.0 mi SE 3.5 mph - N/A   Clear
7:55 AM -9.4 °F -18.6 °F -13.0 °F 84% 29.94 in 10.0 mi SSE 3.5 mph - N/A   Clear
8:15 AM -9.4 °F -18.6 °F -13.0 °F 84% 29.93 in 10.0 mi ESE 3.5 mph - N/A   Clear
8:35 AM -7.6 °F -20.6 °F - N/A% 29.92 in 10.0 mi SSE 5.8 mph - N/A   Clear
8:55 AM -5.8 °F -18.4 °F -11.2 °F 77% 29.91 in 10.0 mi SE 5.8 mph - N/A   Clear
9:15 AM -4.0 °F -17.8 °F -9.4 °F 78% 29.90 in 10.0 mi SSE 6.9 mph - N/A   Clear
9:35 AM -2.2 °F -15.6 °F -7.6 °F 78% 29.88 in 10.0 mi SSE 6.9 mph - N/A   Partly Cloudy
9:55 AM -0.4 °F -17.6 °F -7.6 °F 72% 29.86 in 10.0 mi SSE 11.5 mph - N/A   Partly Cloudy
10:15 AM -0.4 °F -19.2 °F -7.6 °F 72% 29.84 in 10.0 mi SSE 13.8 mph - N/A   Clear
10:35 AM -0.4 °F -20.5 °F -5.8 °F 78% 29.82 in 10.0 mi SSE 16.1 mph - N/A   Clear
10:55 AM -0.4 °F -21.2 °F -4.0 °F 85% 29.80 in 10.0 mi SSE 17.3 mph 21.9 mph N/A   Clear
11:15 AM 1.4 °F -18.8 °F -4.0 °F 78% 29.78 in 10.0 mi SSE 17.3 mph 21.9 mph N/A   Clear
11:35 AM 3.2 °F -17.6 °F -2.2 °F 78% 29.75 in 10.0 mi SSE 19.6 mph 24.2 mph N/A   Clear
11:55 AM 5.0 °F -15.2 °F -0.4 °F 78% 29.73 in 10.0 mi SSE 19.6 mph 24.2 mph N/A   Clear
12:15 PM 5.0 °F -14.7 °F -0.4 °F 78% 29.70 in 10.0 mi SSE 18.4 mph 25.3 mph N/A   Mostly Cloudy
12:35 PM 6.8 °F -12.4 °F 1.4 °F 79% 29.67 in 10.0 mi SSE 18.4 mph 24.2 mph N/A   Overcast
12:55 PM 6.8 °F -12.4 °F 3.2 °F 85% 29.64 in 7.0 mi SSE 18.4 mph 23.0 mph N/A   Mostly Cloudy
1:15 PM 8.6 °F -9.5 °F 5.0 °F 85% 29.61 in 5.0 mi SSE 17.3 mph 24.2 mph N/A Snow Light Snow
1:35 PM 8.6 °F -10.5 °F 6.8 °F 92% 29.59 in 3.0 mi SSE 19.6 mph 25.3 mph N/A Snow Light Snow
1:55 PM 10.4 °F -8.2 °F 6.8 °F 85% 29.57 in 4.0 mi SSE 19.6 mph 24.2 mph N/A Snow Light Snow
2:15 PM 10.4 °F -7.7 °F 8.6 °F 92% 29.55 in 10.0 mi SSE 18.4 mph - N/A   Mostly Cloudy
2:35 PM 10.4 °F -7.2 °F 8.6 °F 92% 29.52 in 10.0 mi SE 17.3 mph - N/A   Overcast
2:55 PM 12.2 °F -5.8 °F 8.6 °F 85% 29.50 in 10.0 mi SSE 19.6 mph 24.2 mph N/A   Mostly Cloudy
3:15 PM 12.2 °F -4.3 °F 10.4 °F 92% 29.47 in 10.0 mi SE 16.1 mph - N/A   Mostly Cloudy
3:35 PM 14.0 °F -3.0 °F 10.4 °F 86% 29.45 in 10.0 mi SE 18.4 mph - N/A   Mostly Cloudy
3:55 PM 14.0 °F -2.5 °F 12.2 °F 93% 29.44 in 10.0 mi SE 17.3 mph 21.9 mph N/A   Overcast
4:15 PM 14.0 °F -0.8 °F 12.2 °F 93% 29.42 in 10.0 mi SE 13.8 mph 20.7 mph N/A   Mostly Cloudy
4:35 PM 15.8 °F 0.3 °F 14.0 °F 93% 29.40 in 10.0 mi SSE 16.1 mph 19.6 mph N/A   Mostly Cloudy
4:55 PM 15.8 °F 0.3 °F 15.8 °F 100% 29.38 in 0.5 mi SSE 16.1 mph - N/A Snow Snow
5:15 PM 17.6 °F 3.2 °F 15.8 °F 93% 29.35 in 3.0 mi SSE 15.0 mph 19.6 mph N/A Snow Light Snow
5:35 PM 17.6 °F 3.2 °F 15.8 °F 93% 29.33 in 1.0 mi SSE 15.0 mph 20.7 mph 0.01 in Snow Light Snow
5:55 PM 17.6 °F 3.7 °F 17.6 °F 100% 29.30 in 1.0 mi SSE 13.8 mph - 0.05 in Snow Light Snow
6:15 PM 19.4 °F 6.0 °F 19.4 °F 100% 29.29 in 10.0 mi SSE 13.8 mph 19.6 mph N/A Snow Light Snow
6:35 PM 19.4 °F 6.6 °F 19.4 °F 100% 29.27 in 1.8 mi South 12.7 mph 18.4 mph N/A Snow Light Snow
6:55 PM 21.2 °F 7.3 °F 21.2 °F 100% 29.26 in 2.5 mi South 16.1 mph - 0.01 in Snow Light Snow
7:15 PM 23.0 °F 9.2 °F 23.0 °F 100% 29.24 in 8.0 mi South 17.3 mph 21.9 mph N/A Snow Light Snow
7:35 PM 23.0 °F 9.6 °F 23.0 °F 100% 29.21 in 10.0 mi South 16.1 mph 20.7 mph N/A Snow Light Snow
7:55 PM 24.8 °F 11.1 °F 24.8 °F 100% 29.20 in 10.0 mi SSW 18.4 mph 27.6 mph N/A   Overcast
8:15 PM 24.8 °F 11.9 °F 24.8 °F 100% 29.20 in 10.0 mi SSW 16.1 mph - N/A   Overcast
8:35 PM 26.6 °F 15.2 °F 24.8 °F 93% 29.19 in 10.0 mi SSW 13.8 mph 18.4 mph N/A   Overcast
8:55 PM 26.6 °F 16.8 °F 24.8 °F 93% 29.18 in 10.0 mi SW 10.4 mph - N/A   Overcast
9:15 PM 32.0 °F 20.1 °F 28.4 °F 87% 29.18 in 10.0 mi West 19.6 mph - N/A   Mostly Cloudy
9:35 PM 32.0 °F 20.1 °F 28.4 °F 87% 29.19 in 10.0 mi West 19.6 mph - N/A   Overcast
9:55 PM 32.0 °F 20.5 °F 28.4 °F 87% 29.21 in 10.0 mi West 18.4 mph 29.9 mph N/A Rain Light Rain
10:15 PM 32.0 °F 17.4 °F 32.0 °F 100% 29.23 in 1.5 mi WNW 31.1 mph 46.0 mph 0.08 in Snow Light Snow
10:35 PM 32.0 °F 17.2 °F 32.0 °F 100% 29.24 in 2.5 mi WNW 32.2 mph 43.7 mph 0.11 in Rain Light Rain
10:55 PM 28.4 °F 13.0 °F 28.4 °F 100% 29.26 in 2.5 mi NW 28.8 mph 43.7 mph 0.12 in Rain Light Freezing Rain
11:15 PM 24.8 °F 9.0 °F 24.8 °F 100% 29.30 in 9.0 mi NW 25.3 mph 36.8 mph N/A Rain Light Freezing Rain
11:35 PM 23.0 °F 9.6 °F 19.4 °F 86% 29.32 in 10.0 mi NNW 16.1 mph 31.1 mph N/A   Overcast
11:55 PM 15.8 °F -0.2 °F 15.8 °F 100% 29.36 in 10.0 mi NW 17.3 mph 25.3 mph N/A   Overcast